Time,TemperatureF,DewpointF,PressureIn,WindDirection,WindDirectionDegrees,WindSpeedMPH,WindSpeedGustMPH,Humidity,HourlyPrecipIn,Conditions,Clouds,dailyrainin,SoftwareType,DateUTC
2013-03-11 00:01:00,29.7,24.3,29.98,East,88,2.0,15.0,80,0.00,,,0.02,meteohub,2013-03-11 05:01:00,
2013-03-11 00:02:00,29.7,24.3,29.98,East,92,11.0,15.0,80,0.00,,,0.02,meteohub,2013-03-11 05:02:00,
2013-03-11 00:07:00,29.7,24.3,29.98,ENE,78,2.0,15.0,80,0.00,,,0.00,meteohub,2013-03-11 05:07:00,
2013-03-11 00:12:00,29.7,24.3,29.98,East,94,6.0,12.0,80,0.00,,,0.00,meteohub,2013-03-11 05:12:00,
2013-03-11 00:17:00,29.7,24.3,29.98,ENE,76,4.0,14.0,80,0.00,,,0.00,meteohub,2013-03-11 05:17:00,
2013-03-11 00:22:00,29.5,23.7,29.98,East,96,14.0,14.0,79,0.00,,,0.00,meteohub,2013-03-11 05:22:00,
2013-03-11 00:27:00,29.5,23.7,29.98,East,94,7.0,16.0,79,0.00,,,0.00,meteohub,2013-03-11 05:27:00,
2013-03-11 00:32:00,29.5,23.7,29.98,East,80,9.0,16.0,79,0.00,,,0.00,meteohub,2013-03-11 05:32:00,
2013-03-11 00:37:00,29.5,23.7,29.98,ENE,75,7.0,16.0,79,0.00,,,0.00,meteohub,2013-03-11 05:37:00,
2013-03-11 00:42:00,29.5,23.7,29.98,East,83,7.0,16.0,79,0.00,,,0.00,meteohub,2013-03-11 05:42:00,
2013-03-11 00:47:00,29.3,23.5,29.98,East,82,9.0,15.0,79,0.00,,,0.00,meteohub,2013-03-11 05:47:00,
2013-03-11 00:52:00,29.3,23.5,29.97,East,88,7.0,15.0,79,0.00,,,0.00,meteohub,2013-03-11 05:52:00,
2013-03-11 00:57:00,29.3,23.5,29.97,ESE,120,8.0,15.0,79,0.00,,,0.00,meteohub,2013-03-11 05:57:00,
2013-03-11 01:02:00,29.1,23.4,29.97,East,80,4.0,15.0,79,0.00,,,0.00,meteohub,2013-03-11 06:02:00,
2013-03-11 01:07:00,29.1,23.4,29.97,East,83,9.0,15.0,79,0.00,,,0.00,meteohub,2013-03-11 06:07:00,
2013-03-11 01:12:00,29.1,23.4,29.97,East,87,4.0,14.0,79,0.00,,,0.00,meteohub,2013-03-11 06:12:00,
2013-03-11 01:17:00,29.1,23.4,29.97,East,82,7.0,13.0,79,0.00,,,0.00,meteohub,2013-03-11 06:17:00,
2013-03-11 01:22:00,29.1,23.4,29.97,East,91,7.0,13.0,79,0.00,,,0.00,meteohub,2013-03-11 06:22:00,
2013-03-11 01:27:00,29.1,23.4,29.97,East,80,6.0,13.0,79,0.00,,,0.00,meteohub,2013-03-11 06:27:00,
2013-03-11 01:32:00,29.1,23.4,29.97,ENE,70,11.0,12.0,79,0.00,,,0.00,meteohub,2013-03-11 06:32:00,
2013-03-11 01:37:00,28.9,23.2,29.97,East,86,6.0,14.0,79,0.00,,,0.00,meteohub,2013-03-11 06:37:00,
2013-03-11 01:42:00,28.9,23.2,29.97,ENE,68,8.0,16.0,79,0.00,,,0.00,meteohub,2013-03-11 06:42:00,
2013-03-11 01:47:00,28.9,23.2,29.96,ENE,66,4.0,16.0,79,0.00,,,0.00,meteohub,2013-03-11 06:47:00,
2013-03-11 01:52:00,28.9,23.2,29.96,East,93,3.0,16.0,79,0.00,,,0.00,meteohub,2013-03-11 06:52:00,
2013-03-11 01:57:00,28.9,23.2,29.96,East,86,10.0,14.0,79,0.00,,,0.00,meteohub,2013-03-11 06:57:00,
2013-03-11 02:02:00,28.9,23.2,29.96,East,100,4.0,14.0,79,0.00,,,0.00,meteohub,2013-03-11 07:02:00,
2013-03-11 02:07:00,28.8,23.0,29.96,East,84,4.0,14.0,79,0.00,,,0.00,meteohub,2013-03-11 07:07:00,
2013-03-11 02:12:00,28.8,23.0,29.96,ENE,69,9.0,14.0,79,0.00,,,0.00,meteohub,2013-03-11 07:12:00,
2013-03-11 02:17:00,28.8,23.0,29.96,ENE,75,2.0,13.0,79,0.00,,,0.00,meteohub,2013-03-11 07:17:00,
2013-03-11 02:22:00,28.8,23.0,29.96,East,84,7.0,14.0,79,0.00,,,0.00,meteohub,2013-03-11 07:22:00,
2013-03-11 02:27:00,28.8,23.0,29.96,East,98,7.0,14.0,79,0.00,,,0.00,meteohub,2013-03-11 07:27:00,
2013-03-11 02:32:00,28.8,23.0,29.96,ENE,67,4.0,14.0,79,0.00,,,0.00,meteohub,2013-03-11 07:32:00,
2013-03-11 02:37:00,28.8,23.0,29.96,ESE,107,6.0,13.0,79,0.00,,,0.00,meteohub,2013-03-11 07:37:00,
2013-03-11 02:42:00,28.6,22.8,29.96,ENE,71,11.0,13.0,79,0.00,,,0.00,meteohub,2013-03-11 07:42:00,
2013-03-11 02:47:00,28.6,22.8,29.96,East,84,7.0,17.0,79,0.00,,,0.00,meteohub,2013-03-11 07:47:00,
2013-03-11 02:52:00,28.6,22.8,29.96,East,88,6.0,17.0,79,0.00,,,0.00,meteohub,2013-03-11 07:52:00,
2013-03-11 02:57:00,28.6,22.8,29.96,East,96,6.0,17.0,79,0.00,,,0.00,meteohub,2013-03-11 07:57:00,
2013-03-11 03:02:00,28.6,22.8,29.96,East,82,11.0,16.0,79,0.00,,,0.00,meteohub,2013-03-11 08:02:00,
2013-03-11 03:07:00,28.6,22.8,29.95,East,86,10.0,16.0,79,0.00,,,0.00,meteohub,2013-03-11 08:07:00,
2013-03-11 03:12:00,28.6,22.8,29.95,ESE,111,6.0,14.0,79,0.00,,,0.00,meteohub,2013-03-11 08:12:00,
2013-03-11 03:17:00,28.4,22.6,29.95,East,82,4.0,14.0,79,0.00,,,0.00,meteohub,2013-03-11 08:17:00,
2013-03-11 03:22:00,28.4,22.6,29.95,East,93,3.0,14.0,79,0.00,,,0.00,meteohub,2013-03-11 08:22:00,
2013-03-11 03:27:00,28.4,22.6,29.95,East,87,5.0,14.0,79,0.00,,,0.00,meteohub,2013-03-11 08:27:00,
2013-03-11 03:32:00,28.4,22.6,29.95,ENE,76,11.0,14.0,79,0.00,,,0.00,meteohub,2013-03-11 08:32:00,
2013-03-11 03:37:00,28.4,22.6,29.95,East,98,13.0,17.0,79,0.00,,,0.00,meteohub,2013-03-11 08:37:00,
2013-03-11 03:42:00,28.4,22.6,29.94,ESE,102,7.0,17.0,79,0.00,,,0.00,meteohub,2013-03-11 08:42:00,
2013-03-11 03:47:00,28.2,22.6,29.94,East,87,11.0,16.0,79,0.00,,,0.00,meteohub,2013-03-11 08:47:00,
2013-03-11 03:52:00,28.2,22.6,29.94,ENE,78,5.0,16.0,79,0.00,,,0.00,meteohub,2013-03-11 08:52:00,
2013-03-11 03:57:00,28.2,22.6,29.94,East,98,9.0,15.0,79,0.00,,,0.00,meteohub,2013-03-11 08:57:00,
2013-03-11 04:03:00,28.2,22.6,29.94,East,94,12.0,14.0,79,0.00,,,0.00,meteohub,2013-03-11 09:03:00,
2013-03-11 04:08:00,28.0,22.5,29.94,East,84,5.0,15.0,79,0.00,,,0.00,meteohub,2013-03-11 09:08:00,
2013-03-11 04:13:00,28.0,22.5,29.93,ENE,59,12.0,15.0,79,0.00,,,0.00,meteohub,2013-03-11 09:13:00,
2013-03-11 04:18:00,28.0,22.5,29.93,East,81,7.0,15.0,79,0.00,,,0.00,meteohub,2013-03-11 09:18:00,
2013-03-11 04:23:00,28.0,22.5,29.93,ENE,76,10.0,16.0,79,0.00,,,0.00,meteohub,2013-03-11 09:23:00,
2013-03-11 04:28:00,28.0,22.6,29.93,ENE,68,11.0,16.0,80,0.00,,,0.00,meteohub,2013-03-11 09:28:00,
2013-03-11 04:33:00,27.9,22.5,29.93,ENE,71,6.0,16.0,80,0.00,,,0.00,meteohub,2013-03-11 09:33:00,
2013-03-11 04:38:00,27.9,22.5,29.92,East,92,5.0,15.0,80,0.00,,,0.00,meteohub,2013-03-11 09:38:00,
2013-03-11 04:43:00,27.9,22.5,29.92,ENE,64,7.0,15.0,80,0.00,,,0.00,meteohub,2013-03-11 09:43:00,
2013-03-11 04:48:00,27.9,22.5,29.92,East,82,6.0,15.0,80,0.00,,,0.00,meteohub,2013-03-11 09:48:00,
2013-03-11 04:53:00,27.9,22.5,29.92,ENE,76,3.0,13.0,80,0.00,,,0.00,meteohub,2013-03-11 09:53:00,
2013-03-11 04:58:00,27.9,22.5,29.92,ENE,65,9.0,13.0,80,0.00,,,0.00,meteohub,2013-03-11 09:58:00,
2013-03-11 05:03:00,27.7,22.3,29.92,ENE,76,5.0,15.0,80,0.00,,,0.00,meteohub,2013-03-11 10:03:00,
2013-03-11 05:08:00,27.7,22.3,29.92,ENE,76,6.0,15.0,80,0.00,,,0.00,meteohub,2013-03-11 10:08:00,
2013-03-11 05:13:00,27.5,22.1,29.92,East,83,5.0,13.0,80,0.00,,,0.00,meteohub,2013-03-11 10:13:00,
2013-03-11 05:18:00,27.5,22.5,29.92,East,84,13.0,13.0,81,0.00,,,0.00,meteohub,2013-03-11 10:18:00,
2013-03-11 05:23:00,27.3,22.3,29.91,East,86,5.0,15.0,81,0.00,,,0.00,meteohub,2013-03-11 10:23:00,
2013-03-11 05:28:00,27.3,21.9,29.92,East,99,7.0,15.0,80,0.00,,,0.00,meteohub,2013-03-11 10:28:00,
2013-03-11 05:33:00,27.3,21.9,29.91,East,84,5.0,15.0,80,0.00,,,0.00,meteohub,2013-03-11 10:33:00,
2013-03-11 05:38:00,27.3,22.3,29.91,ENE,66,10.0,15.0,81,0.00,,,0.00,meteohub,2013-03-11 10:38:00,
2013-03-11 05:43:00,27.3,22.3,29.91,East,84,7.0,15.0,81,0.00,,,0.00,meteohub,2013-03-11 10:43:00,
2013-03-11 05:48:00,27.1,22.1,29.91,East,95,9.0,14.0,81,0.00,,,0.00,meteohub,2013-03-11 10:48:00,
2013-03-11 05:53:00,27.1,22.1,29.91,ENE,63,6.0,13.0,81,0.00,,,0.00,meteohub,2013-03-11 10:53:00,
2013-03-11 05:58:00,27.1,22.1,29.91,ENE,72,3.0,13.0,81,0.00,,,0.00,meteohub,2013-03-11 10:58:00,
2013-03-11 06:04:00,27.1,22.1,29.91,East,79,9.0,13.0,81,0.00,,,0.00,meteohub,2013-03-11 11:04:00,
2013-03-11 06:09:00,27.1,22.1,29.92,ENE,61,6.0,14.0,81,0.00,,,0.00,meteohub,2013-03-11 11:09:00,
2013-03-11 06:14:00,27.1,22.1,29.91,ENE,63,6.0,14.0,81,0.00,,,0.00,meteohub,2013-03-11 11:14:00,
2013-03-11 06:19:00,27.0,21.9,29.92,East,80,10.0,14.0,81,0.00,,,0.00,meteohub,2013-03-11 11:19:00,
2013-03-11 06:24:00,27.0,21.9,29.91,ENE,78,4.0,13.0,81,0.00,,,0.00,meteohub,2013-03-11 11:24:00,
2013-03-11 06:29:00,27.0,21.9,29.91,East,82,4.0,16.0,81,0.00,,,0.00,meteohub,2013-03-11 11:29:00,
2013-03-11 06:34:00,27.0,21.9,29.91,ENE,65,4.0,16.0,81,0.00,,,0.00,meteohub,2013-03-11 11:34:00,
2013-03-11 06:39:00,27.0,21.9,29.91,NE,56,7.0,12.0,81,0.00,,,0.00,meteohub,2013-03-11 11:39:00,
2013-03-11 06:44:00,27.0,21.9,29.91,ESE,105,6.0,14.0,81,0.00,,,0.00,meteohub,2013-03-11 11:44:00,
2013-03-11 06:49:00,26.8,21.7,29.92,ENE,71,3.0,14.0,81,0.00,,,0.00,meteohub,2013-03-11 11:49:00,
2013-03-11 06:54:00,26.8,21.7,29.91,East,99,10.0,14.0,81,0.00,,,0.00,meteohub,2013-03-11 11:54:00,
2013-03-11 06:59:00,26.8,21.7,29.91,ENE,75,6.0,14.0,81,0.00,,,0.00,meteohub,2013-03-11 11:59:00,
2013-03-11 07:04:00,26.8,21.7,29.91,ESE,103,7.0,12.0,81,0.00,,,0.00,meteohub,2013-03-11 12:04:00,
2013-03-11 07:09:00,26.8,21.7,29.91,ENE,70,7.0,12.0,81,0.00,,,0.00,meteohub,2013-03-11 12:09:00,
2013-03-11 07:14:00,26.8,21.7,29.91,East,96,3.0,12.0,81,0.00,,,0.00,meteohub,2013-03-11 12:14:00,
2013-03-11 07:19:00,26.8,21.7,29.91,ENE,71,5.0,13.0,81,0.00,,,0.00,meteohub,2013-03-11 12:19:00,
2013-03-11 07:24:00,26.8,21.7,29.91,ENE,71,3.0,13.0,81,0.00,,,0.00,meteohub,2013-03-11 12:24:00,
2013-03-11 07:29:00,26.8,21.7,29.91,NE,43,9.0,13.0,81,0.00,,,0.00,meteohub,2013-03-11 12:29:00,
2013-03-11 07:34:00,26.8,21.7,29.91,ENE,70,9.0,13.0,81,0.00,,,0.00,meteohub,2013-03-11 12:34:00,
2013-03-11 07:39:00,26.8,21.7,29.91,NE,53,9.0,13.0,81,0.00,,,0.00,meteohub,2013-03-11 12:39:00,
2013-03-11 07:44:00,26.8,21.7,29.91,ENE,74,4.0,13.0,81,0.00,,,0.00,meteohub,2013-03-11 12:44:00,
2013-03-11 07:49:00,26.8,21.7,29.92,East,84,2.0,13.0,81,0.00,,,0.00,meteohub,2013-03-11 12:49:00,
2013-03-11 07:54:00,26.8,21.7,29.92,ENE,57,8.0,13.0,81,0.00,,,0.00,meteohub,2013-03-11 12:54:00,
2013-03-11 07:59:00,26.8,21.7,29.92,ENE,60,9.0,13.0,81,0.00,,,0.00,meteohub,2013-03-11 12:59:00,
2013-03-11 08:04:00,26.8,21.4,29.92,ENE,68,9.0,13.0,80,0.00,,,0.00,meteohub,2013-03-11 13:04:00,
2013-03-11 08:09:00,26.8,21.7,29.92,NE,39,7.0,14.0,81,0.00,,,0.00,meteohub,2013-03-11 13:09:00,
2013-03-11 08:14:00,26.8,21.7,29.92,NE,34,11.0,14.0,81,0.00,,,0.00,meteohub,2013-03-11 13:14:00,
2013-03-11 08:19:00,26.4,21.0,29.92,ENE,61,6.0,15.0,80,0.00,,,0.00,meteohub,2013-03-11 13:19:00,
2013-03-11 08:24:00,26.2,20.8,29.92,NNE,25,8.0,15.0,80,0.00,,,0.00,meteohub,2013-03-11 13:24:00,
2013-03-11 08:29:00,26.2,21.2,29.92,ENE,66,6.0,17.0,81,0.00,,,0.00,meteohub,2013-03-11 13:29:00,
2013-03-11 08:34:00,26.2,21.2,29.92,NE,56,9.0,17.0,81,0.00,,,0.00,meteohub,2013-03-11 13:34:00,
2013-03-11 08:39:00,26.2,21.2,29.92,ENE,57,7.0,17.0,81,0.00,,,0.00,meteohub,2013-03-11 13:39:00,
2013-03-11 08:44:00,26.2,21.2,29.93,ENE,69,10.0,15.0,81,0.00,,,0.00,meteohub,2013-03-11 13:44:00,
2013-03-11 08:49:00,26.2,21.2,29.93,NE,36,11.0,14.0,81,0.00,,,0.00,meteohub,2013-03-11 13:49:00,
2013-03-11 08:54:00,26.1,21.0,29.93,ENE,61,8.0,16.0,81,0.00,,,0.00,meteohub,2013-03-11 13:54:00,
2013-03-11 08:59:00,26.1,21.0,29.93,ENE,67,11.0,18.0,81,0.00,,,0.00,meteohub,2013-03-11 13:59:00,
2013-03-11 09:04:00,26.1,21.0,29.93,ENE,74,4.0,18.0,81,0.00,,,0.00,meteohub,2013-03-11 14:04:00,
2013-03-11 09:09:00,26.1,21.0,29.93,ENE,65,6.0,16.0,81,0.00,,,0.00,meteohub,2013-03-11 14:09:00,
2013-03-11 09:14:00,26.1,21.0,29.93,NE,46,12.0,16.0,81,0.00,,,0.00,meteohub,2013-03-11 14:14:00,
2013-03-11 09:20:00,26.1,21.0,29.93,ENE,61,11.0,14.0,81,0.00,,,0.00,meteohub,2013-03-11 14:20:00,
2013-03-11 09:24:00,26.1,21.0,29.93,NE,53,14.0,14.0,81,0.00,,,0.00,meteohub,2013-03-11 14:24:00,
2013-03-11 09:30:00,26.1,20.7,29.93,NE,53,4.0,14.0,80,0.00,,,0.00,meteohub,2013-03-11 14:30:00,
2013-03-11 09:35:00,26.2,21.2,29.93,East,86,6.0,15.0,81,0.00,,,0.00,meteohub,2013-03-11 14:35:00,
2013-03-11 09:40:00,26.2,20.8,29.93,NE,50,4.0,15.0,80,0.00,,,0.00,meteohub,2013-03-11 14:40:00,
2013-03-11 09:45:00,26.2,20.8,29.93,ENE,64,10.0,15.0,80,0.00,,,0.00,meteohub,2013-03-11 14:45:00,
2013-03-11 09:50:00,26.2,20.8,29.93,ENE,68,11.0,15.0,80,0.00,,,0.00,meteohub,2013-03-11 14:50:00,
2013-03-11 09:55:00,26.4,21.0,29.93,ENE,68,7.0,15.0,80,0.00,,,0.00,meteohub,2013-03-11 14:55:00,
2013-03-11 10:00:00,26.4,21.0,29.93,East,92,10.0,15.0,80,0.00,,,0.00,meteohub,2013-03-11 15:00:00,
2013-03-11 10:05:00,26.6,21.2,29.93,ENE,59,9.0,15.0,80,0.00,,,0.00,meteohub,2013-03-11 15:05:00,
2013-03-11 10:10:00,26.6,21.2,29.93,ENE,59,5.0,16.0,80,0.00,,,0.00,meteohub,2013-03-11 15:10:00,
2013-03-11 10:15:00,26.8,21.4,29.93,ENE,71,5.0,16.0,80,0.00,,,0.00,meteohub,2013-03-11 15:15:00,
2013-03-11 10:20:00,27.0,21.6,29.93,ENE,61,10.0,16.0,80,0.00,,,0.00,meteohub,2013-03-11 15:20:00,
2013-03-11 10:25:00,27.0,21.6,29.93,ENE,76,3.0,14.0,80,0.00,,,0.00,meteohub,2013-03-11 15:25:00,
2013-03-11 10:30:00,27.1,21.7,29.93,East,86,6.0,14.0,80,0.00,,,0.00,meteohub,2013-03-11 15:30:00,
2013-03-11 10:35:00,27.1,21.7,29.93,NE,55,12.0,13.0,80,0.00,,,0.00,meteohub,2013-03-11 15:35:00,
2013-03-11 10:40:00,27.0,21.4,29.92,East,79,9.0,16.0,79,0.00,,,0.00,meteohub,2013-03-11 15:40:00,
2013-03-11 10:45:00,27.0,21.6,29.92,ENE,69,9.0,16.0,80,0.00,,,0.00,meteohub,2013-03-11 15:45:00,
2013-03-11 10:50:00,27.1,21.7,29.92,ENE,74,5.0,16.0,80,0.00,,,0.00,meteohub,2013-03-11 15:50:00,
2013-03-11 10:55:00,27.3,21.9,29.92,ENE,77,6.0,15.0,80,0.00,,,0.00,meteohub,2013-03-11 15:55:00,
2013-03-11 11:00:00,27.1,21.7,29.92,NE,39,11.0,15.0,80,0.00,,,0.00,meteohub,2013-03-11 16:00:00,
2013-03-11 11:05:00,27.3,21.9,29.92,ESE,111,11.0,15.0,80,0.00,,,0.00,meteohub,2013-03-11 16:05:00,
2013-03-11 11:10:00,27.3,21.9,29.92,ENE,68,11.0,15.0,80,0.00,,,0.00,meteohub,2013-03-11 16:10:00,
2013-03-11 11:15:00,27.3,21.9,29.92,East,92,4.0,14.0,80,0.00,,,0.00,meteohub,2013-03-11 16:15:00,
2013-03-11 11:20:00,27.7,22.3,29.92,ESE,116,6.0,14.0,80,0.00,,,0.00,meteohub,2013-03-11 16:20:00,
2013-03-11 11:25:00,27.7,22.3,29.92,East,82,4.0,12.0,80,0.00,,,0.00,meteohub,2013-03-11 16:25:00,
2013-03-11 11:30:00,27.7,22.3,29.92,ENE,63,10.0,12.0,80,0.00,,,0.00,meteohub,2013-03-11 16:30:00,
2013-03-11 11:35:00,27.7,22.3,29.91,ENE,76,4.0,14.0,80,0.00,,,0.00,meteohub,2013-03-11 16:35:00,
2013-03-11 11:40:00,27.7,22.3,29.91,ENE,78,4.0,14.0,80,0.00,,,0.00,meteohub,2013-03-11 16:40:00,
2013-03-11 11:45:00,27.7,22.3,29.91,ENE,64,6.0,13.0,80,0.00,,,0.00,meteohub,2013-03-11 16:45:00,
2013-03-11 11:50:00,27.7,22.3,29.91,NE,56,4.0,12.0,80,0.00,,,0.00,meteohub,2013-03-11 16:50:00,
2013-03-11 11:55:00,27.9,22.5,29.91,ENE,57,7.0,12.0,80,0.00,,,0.00,meteohub,2013-03-11 16:55:00,
2013-03-11 12:00:00,27.9,22.3,29.91,ENE,65,7.0,12.0,79,0.00,,,0.00,meteohub,2013-03-11 17:00:00,
2013-03-11 12:05:00,27.9,22.3,29.91,NE,46,8.0,13.0,79,0.00,,,0.00,meteohub,2013-03-11 17:05:00,
2013-03-11 12:10:00,27.9,22.3,29.91,NE,35,10.0,13.0,79,0.00,,,0.00,meteohub,2013-03-11 17:10:00,
2013-03-11 12:15:00,27.7,22.1,29.91,ENE,63,7.0,13.0,79,0.00,,,0.00,meteohub,2013-03-11 17:15:00,
2013-03-11 12:20:00,27.7,22.1,29.91,NNE,30,7.0,13.0,79,0.00,,,0.00,meteohub,2013-03-11 17:20:00,
2013-03-11 12:25:00,27.7,22.1,29.90,East,82,6.0,13.0,79,0.00,,,0.00,meteohub,2013-03-11 17:25:00,
2013-03-11 12:30:00,27.7,22.1,29.90,ENE,69,10.0,13.0,79,0.00,,,0.00,meteohub,2013-03-11 17:30:00,
2013-03-11 12:35:00,27.7,22.1,29.90,East,81,13.0,15.0,79,0.00,,,0.00,meteohub,2013-03-11 17:35:00,
2013-03-11 12:40:00,27.9,22.5,29.90,NE,36,5.0,15.0,80,0.00,,,0.00,meteohub,2013-03-11 17:40:00,
2013-03-11 12:45:00,28.2,22.6,29.90,NNE,19,5.0,15.0,79,0.00,,,0.00,meteohub,2013-03-11 17:45:00,
2013-03-11 12:50:00,28.0,22.1,29.90,NE,38,11.0,14.0,78,0.00,,,0.00,meteohub,2013-03-11 17:50:00,
2013-03-11 12:55:00,28.2,22.6,29.90,NE,35,11.0,14.0,79,0.00,,,0.00,meteohub,2013-03-11 17:55:00,
2013-03-11 13:00:00,28.0,22.1,29.90,ENE,60,8.0,14.0,78,0.00,,,0.00,meteohub,2013-03-11 18:00:00,
2013-03-11 13:06:00,28.0,22.5,29.90,ENE,67,6.0,15.0,79,0.00,,,0.00,meteohub,2013-03-11 18:06:00,
2013-03-11 13:11:00,27.9,22.3,29.90,NE,40,8.0,16.0,79,0.00,,,0.00,meteohub,2013-03-11 18:11:00,
2013-03-11 13:16:00,28.0,22.5,29.89,NE,34,9.0,16.0,79,0.00,,,0.00,meteohub,2013-03-11 18:16:00,
2013-03-11 13:21:00,28.2,22.6,29.89,ENE,63,9.0,16.0,79,0.00,,,0.00,meteohub,2013-03-11 18:21:00,
2013-03-11 13:26:00,28.2,22.6,29.89,ENE,67,9.0,15.0,79,0.00,,,0.00,meteohub,2013-03-11 18:26:00,
2013-03-11 13:31:00,28.2,22.3,29.89,NE,53,9.0,14.0,78,0.00,,,0.00,meteohub,2013-03-11 18:31:00,
2013-03-11 13:36:00,28.4,22.5,29.89,ENE,65,11.0,14.0,78,0.00,,,0.00,meteohub,2013-03-11 18:36:00,
2013-03-11 13:41:00,28.4,22.5,29.89,NNE,32,6.0,14.0,78,0.00,,,0.00,meteohub,2013-03-11 18:41:00,
2013-03-11 13:46:00,28.6,22.6,29.89,NE,50,4.0,14.0,78,0.00,,,0.00,meteohub,2013-03-11 18:46:00,
2013-03-11 13:51:00,28.8,22.5,29.88,NNE,28,10.0,14.0,77,0.00,,,0.00,meteohub,2013-03-11 18:51:00,
2013-03-11 13:56:00,28.8,22.5,29.88,NNE,24,5.0,15.0,77,0.00,,,0.00,meteohub,2013-03-11 18:56:00,
2013-03-11 14:02:00,28.9,22.6,29.88,East,79,8.0,15.0,77,0.00,,,0.00,meteohub,2013-03-11 19:02:00,
2013-03-11 14:07:00,28.9,22.6,29.88,ENE,67,4.0,15.0,77,0.00,,,0.00,meteohub,2013-03-11 19:07:00,
2013-03-11 14:12:00,28.9,22.3,29.88,East,86,5.0,15.0,76,0.00,,,0.00,meteohub,2013-03-11 19:12:00,
2013-03-11 14:17:00,28.9,22.3,29.88,ENE,59,5.0,15.0,76,0.00,,,0.00,meteohub,2013-03-11 19:17:00,
2013-03-11 14:22:00,28.9,22.3,29.88,NE,41,10.0,15.0,76,0.00,,,0.00,meteohub,2013-03-11 19:22:00,
2013-03-11 14:27:00,28.9,22.3,29.88,NNE,32,11.0,15.0,76,0.00,,,0.00,meteohub,2013-03-11 19:27:00,
2013-03-11 14:32:00,28.8,22.5,29.88,NNE,33,8.0,14.0,77,0.00,,,0.00,meteohub,2013-03-11 19:32:00,
2013-03-11 14:37:00,28.8,22.5,29.88,NE,51,11.0,14.0,77,0.00,,,0.00,meteohub,2013-03-11 19:37:00,
2013-03-11 14:42:00,28.8,22.1,29.88,NE,38,11.0,14.0,76,0.00,,,0.00,meteohub,2013-03-11 19:42:00,
2013-03-11 14:47:00,28.6,22.3,29.88,NE,49,10.0,15.0,77,0.00,,,0.00,meteohub,2013-03-11 19:47:00,
2013-03-11 14:52:00,28.6,22.3,29.88,NE,50,8.0,18.0,77,0.00,,,0.00,meteohub,2013-03-11 19:52:00,
2013-03-11 14:57:00,28.8,22.5,29.88,NE,49,3.0,18.0,77,0.00,,,0.00,meteohub,2013-03-11 19:57:00,
2013-03-11 15:02:00,28.9,22.3,29.88,East,93,8.0,15.0,76,0.00,,,0.00,meteohub,2013-03-11 20:02:00,
2013-03-11 15:07:00,28.9,22.3,29.88,NE,55,5.0,14.0,76,0.00,,,0.00,meteohub,2013-03-11 20:07:00,
2013-03-11 15:12:00,28.9,21.7,29.88,NE,40,12.0,13.0,74,0.00,,,0.00,meteohub,2013-03-11 20:12:00,
2013-03-11 15:17:00,29.1,21.9,29.88,NE,36,9.0,15.0,74,0.00,,,0.00,meteohub,2013-03-11 20:17:00,
2013-03-11 15:22:00,29.7,22.5,29.88,ENE,57,8.0,15.0,74,0.00,,,0.00,meteohub,2013-03-11 20:22:00,
2013-03-11 15:27:00,29.7,21.7,29.88,NE,51,6.0,15.0,72,0.00,,,0.00,meteohub,2013-03-11 20:27:00,
2013-03-11 15:32:00,29.7,21.4,29.88,ENE,67,7.0,16.0,71,0.00,,,0.00,meteohub,2013-03-11 20:32:00,
2013-03-11 15:37:00,29.8,21.6,29.88,NNE,27,9.0,16.0,71,0.00,,,0.00,meteohub,2013-03-11 20:37:00,
2013-03-11 15:42:00,29.8,20.8,29.88,NE,53,7.0,16.0,69,0.00,,,0.00,meteohub,2013-03-11 20:42:00,
2013-03-11 15:47:00,30.0,21.0,29.88,ENE,71,4.0,15.0,69,0.00,,,0.00,meteohub,2013-03-11 20:47:00,
2013-03-11 15:52:00,30.0,20.5,29.88,NE,36,5.0,15.0,67,0.00,,,0.00,meteohub,2013-03-11 20:52:00,
2013-03-11 15:57:00,30.0,20.7,29.88,NE,35,9.0,15.0,68,0.00,,,0.00,meteohub,2013-03-11 20:57:00,
2013-03-11 16:02:00,30.0,20.7,29.88,NE,51,11.0,15.0,68,0.00,,,0.00,meteohub,2013-03-11 21:02:00,
2013-03-11 16:07:00,30.0,21.0,29.88,NNE,28,5.0,15.0,69,0.00,,,0.00,meteohub,2013-03-11 21:07:00,
2013-03-11 16:13:00,30.2,21.2,29.89,NE,45,6.0,13.0,69,0.00,,,0.00,meteohub,2013-03-11 21:13:00,
2013-03-11 16:18:00,30.4,21.4,29.88,NE,49,2.0,13.0,69,0.00,,,0.00,meteohub,2013-03-11 21:18:00,
2013-03-11 16:23:00,30.6,21.6,29.89,NNE,22,5.0,11.0,69,0.00,,,0.00,meteohub,2013-03-11 21:23:00,
2013-03-11 16:28:00,30.6,21.6,29.89,NE,55,9.0,11.0,69,0.00,,,0.00,meteohub,2013-03-11 21:28:00,
2013-03-11 16:33:00,30.6,21.2,29.89,NE,53,10.0,12.0,68,0.00,,,0.00,meteohub,2013-03-11 21:33:00,
2013-03-11 16:38:00,30.4,21.0,29.89,ENE,57,6.0,14.0,68,0.00,,,0.00,meteohub,2013-03-11 21:38:00,
2013-03-11 16:43:00,30.4,21.4,29.89,NNE,20,4.0,14.0,69,0.00,,,0.00,meteohub,2013-03-11 21:43:00,
2013-03-11 16:48:00,30.4,21.4,29.89,NNE,30,5.0,14.0,69,0.00,,,0.00,meteohub,2013-03-11 21:48:00,
2013-03-11 16:53:00,30.2,21.2,29.89,NE,48,4.0,14.0,69,0.00,,,0.00,meteohub,2013-03-11 21:53:00,
2013-03-11 16:58:00,30.0,21.0,29.89,NNE,14,6.0,14.0,69,0.00,,,0.00,meteohub,2013-03-11 21:58:00,
2013-03-11 17:03:00,30.0,21.0,29.89,NNE,30,6.0,14.0,69,0.00,,,0.00,meteohub,2013-03-11 22:03:00,
2013-03-11 17:08:00,30.0,21.4,29.89,NNE,28,4.0,14.0,70,0.00,,,0.00,meteohub,2013-03-11 22:08:00,
2013-03-11 17:13:00,29.8,21.2,29.89,North,11,10.0,14.0,70,0.00,,,0.00,meteohub,2013-03-11 22:13:00,
2013-03-11 17:18:00,29.7,21.4,29.89,North,355,4.0,14.0,71,0.00,,,0.00,meteohub,2013-03-11 22:18:00,
2013-03-11 17:23:00,29.7,21.0,29.90,NE,44,12.0,14.0,70,0.00,,,0.00,meteohub,2013-03-11 22:23:00,
2013-03-11 17:28:00,29.7,21.0,29.90,NNE,22,5.0,14.0,70,0.00,,,0.00,meteohub,2013-03-11 22:28:00,
2013-03-11 17:33:00,29.7,21.0,29.90,NE,40,9.0,16.0,70,0.00,,,0.00,meteohub,2013-03-11 22:33:00,
2013-03-11 17:38:00,29.5,20.8,29.90,NNW,347,11.0,16.0,70,0.00,,,0.00,meteohub,2013-03-11 22:38:00,
2013-03-11 17:43:00,29.5,20.8,29.90,NE,44,7.0,14.0,70,0.00,,,0.00,meteohub,2013-03-11 22:43:00,
2013-03-11 17:48:00,29.5,20.8,29.90,ENE,60,9.0,17.0,70,0.00,,,0.00,meteohub,2013-03-11 22:48:00,
2013-03-11 17:53:00,29.3,20.7,29.90,North,355,9.0,17.0,70,0.00,,,0.00,meteohub,2013-03-11 22:53:00,
2013-03-11 17:59:00,29.1,20.5,29.91,NNE,25,5.0,14.0,70,0.00,,,0.00,meteohub,2013-03-11 22:59:00,
2013-03-11 18:04:00,29.1,20.5,29.91,NNE,22,9.0,14.0,70,0.00,,,0.00,meteohub,2013-03-11 23:04:00,
2013-03-11 18:09:00,28.9,20.5,29.91,NNE,18,7.0,14.0,70,0.00,,,0.00,meteohub,2013-03-11 23:09:00,
2013-03-11 18:14:00,28.8,20.3,29.91,NNE,17,11.0,14.0,70,0.00,,,0.00,meteohub,2013-03-11 23:14:00,
2013-03-11 18:19:00,28.8,20.3,29.91,NNE,27,7.0,14.0,70,0.00,,,0.00,meteohub,2013-03-11 23:19:00,
2013-03-11 18:24:00,28.8,20.3,29.91,NNE,24,6.0,14.0,70,0.00,,,0.00,meteohub,2013-03-11 23:24:00,
2013-03-11 18:29:00,28.6,20.3,29.91,NNE,32,6.0,14.0,71,0.00,,,0.00,meteohub,2013-03-11 23:29:00,
2013-03-11 18:34:00,28.2,20.1,29.91,NE,44,3.0,14.0,71,0.00,,,0.00,meteohub,2013-03-11 23:34:00,
2013-03-11 18:39:00,28.2,20.1,29.91,NE,55,4.0,14.0,71,0.00,,,0.00,meteohub,2013-03-11 23:39:00,
2013-03-11 18:44:00,28.0,19.9,29.91,NNE,14,9.0,14.0,71,0.00,,,0.00,meteohub,2013-03-11 23:44:00,
2013-03-11 18:49:00,28.0,20.1,29.91,NNE,33,8.0,14.0,72,0.00,,,0.00,meteohub,2013-03-11 23:49:00,
2013-03-11 18:54:00,27.9,19.8,29.91,North,355,12.0,14.0,71,0.00,,,0.00,meteohub,2013-03-11 23:54:00,
2013-03-11 18:59:00,27.9,19.9,29.91,NNE,15,5.0,12.0,72,0.00,,,0.00,meteohub,2013-03-11 23:59:00,
2013-03-11 19:04:00,27.9,19.9,29.91,NNE,24,5.0,13.0,72,0.00,,,0.00,meteohub,2013-03-12 00:04:00,
2013-03-11 19:09:00,27.9,19.9,29.91,NNE,25,4.0,13.0,72,0.00,,,0.00,meteohub,2013-03-12 00:09:00,
2013-03-11 19:14:00,27.7,19.8,29.92,NNE,17,5.0,13.0,72,0.00,,,0.00,meteohub,2013-03-12 00:14:00,
2013-03-11 19:19:00,27.7,19.8,29.92,NNE,22,4.0,13.0,72,0.00,,,0.00,meteohub,2013-03-12 00:19:00,
2013-03-11 19:24:00,27.5,19.6,29.92,NE,37,4.0,13.0,72,0.00,,,0.00,meteohub,2013-03-12 00:24:00,
2013-03-11 19:29:00,27.3,19.6,29.92,NNE,32,5.0,13.0,72,0.00,,,0.00,meteohub,2013-03-12 00:29:00,
2013-03-11 19:34:00,27.1,19.6,29.92,NNE,20,3.0,13.0,73,0.00,,,0.00,meteohub,2013-03-12 00:34:00,
2013-03-11 19:39:00,27.1,19.6,29.92,North,5,7.0,13.0,73,0.00,,,0.00,meteohub,2013-03-12 00:39:00,
2013-03-11 19:44:00,27.0,19.4,29.93,NNE,26,4.0,12.0,73,0.00,,,0.00,meteohub,2013-03-12 00:44:00,
2013-03-11 19:49:00,26.8,19.2,29.93,NNE,17,4.0,11.0,73,0.00,,,0.00,meteohub,2013-03-12 00:49:00,
2013-03-11 19:54:00,26.8,19.2,29.93,NNE,22,6.0,11.0,73,0.00,,,0.00,meteohub,2013-03-12 00:54:00,
2013-03-11 19:59:00,26.4,18.9,29.93,NNW,345,7.0,11.0,73,0.00,,,0.00,meteohub,2013-03-12 00:59:00,
2013-03-11 20:04:00,26.4,18.9,29.93,NNE,13,5.0,9.0,73,0.00,,,0.00,meteohub,2013-03-12 01:04:00,
2013-03-11 20:09:00,26.2,18.9,29.93,NNE,22,4.0,9.0,73,0.00,,,0.00,meteohub,2013-03-12 01:09:00,
2013-03-11 20:14:00,26.1,18.7,29.94,NNE,12,5.0,11.0,73,0.00,,,0.00,meteohub,2013-03-12 01:14:00,
2013-03-11 20:19:00,25.9,18.5,29.94,NNE,33,5.0,11.0,73,0.00,,,0.00,meteohub,2013-03-12 01:19:00,
2013-03-11 20:24:00,25.7,18.3,29.94,NNE,24,6.0,11.0,73,0.00,,,0.00,meteohub,2013-03-12 01:24:00,
2013-03-11 20:29:00,25.5,18.1,29.94,NNE,24,4.0,11.0,73,0.00,,,0.00,meteohub,2013-03-12 01:29:00,
2013-03-11 20:34:00,25.3,18.0,29.94,NNE,32,4.0,12.0,73,0.00,,,0.00,meteohub,2013-03-12 01:34:00,
2013-03-11 20:39:00,25.2,17.8,29.94,NNE,19,3.0,12.0,73,0.00,,,0.00,meteohub,2013-03-12 01:39:00,
2013-03-11 20:44:00,25.0,18.0,29.94,North,0,3.0,12.0,74,0.00,,,0.00,meteohub,2013-03-12 01:44:00,
2013-03-11 20:49:00,25.0,18.1,29.94,NNE,18,4.0,10.0,75,0.00,,,0.00,meteohub,2013-03-12 01:49:00,
2013-03-11 20:54:00,24.6,17.8,29.95,NNE,15,1.0,11.0,75,0.00,,,0.00,meteohub,2013-03-12 01:54:00,
2013-03-11 20:59:00,24.6,18.1,29.95,NNE,16,3.0,11.0,76,0.00,,,0.00,meteohub,2013-03-12 01:59:00,
2013-03-11 21:04:00,24.4,18.0,29.95,NNE,29,1.0,11.0,76,0.00,,,0.00,meteohub,2013-03-12 02:04:00,
2013-03-11 21:09:00,24.4,18.0,29.95,NNE,21,4.0,8.0,76,0.00,,,0.00,meteohub,2013-03-12 02:09:00,
2013-03-11 21:14:00,24.3,17.8,29.96,NNE,20,7.0,7.0,76,0.00,,,0.00,meteohub,2013-03-12 02:14:00,
2013-03-11 21:20:00,24.1,18.0,29.96,NNE,14,3.0,8.0,77,0.00,,,0.00,meteohub,2013-03-12 02:20:00,
2013-03-11 21:25:00,23.9,17.8,29.96,NNE,13,5.0,8.0,77,0.00,,,0.00,meteohub,2013-03-12 02:25:00,
2013-03-11 21:30:00,23.7,17.6,29.96,North,11,6.0,7.0,77,0.00,,,0.00,meteohub,2013-03-12 02:30:00,
2013-03-11 21:35:00,23.5,17.4,29.96,NNE,13,3.0,7.0,77,0.00,,,0.00,meteohub,2013-03-12 02:35:00,
2013-03-11 21:40:00,23.5,17.4,29.96,NNE,15,3.0,8.0,77,0.00,,,0.00,meteohub,2013-03-12 02:40:00,
2013-03-11 21:45:00,23.5,17.4,29.96,NNE,26,2.0,9.0,77,0.00,,,0.00,meteohub,2013-03-12 02:45:00,
2013-03-11 21:50:00,23.5,17.4,29.96,NNE,20,2.0,10.0,77,0.00,,,0.00,meteohub,2013-03-12 02:50:00,
2013-03-11 21:55:00,23.5,17.4,29.97,NNE,21,2.0,10.0,77,0.00,,,0.00,meteohub,2013-03-12 02:55:00,
2013-03-11 22:00:00,23.5,17.4,29.97,NNE,27,4.0,10.0,77,0.00,,,0.00,meteohub,2013-03-12 03:00:00,
2013-03-11 22:05:00,23.5,17.4,29.97,NNE,12,3.0,7.0,77,0.00,,,0.00,meteohub,2013-03-12 03:05:00,
2013-03-11 22:10:00,23.4,17.2,29.97,North,5,4.0,9.0,77,0.00,,,0.00,meteohub,2013-03-12 03:10:00,
2013-03-11 22:15:00,23.4,17.2,29.97,North,0,4.0,9.0,77,0.00,,,0.00,meteohub,2013-03-12 03:15:00,
2013-03-11 22:20:00,23.2,17.1,29.97,North,0,3.0,6.0,77,0.00,,,0.00,meteohub,2013-03-12 03:20:00,
2013-03-11 22:25:00,22.8,16.7,29.97,NNW,348,2.0,6.0,77,0.00,,,0.00,meteohub,2013-03-12 03:25:00,
2013-03-11 22:30:00,22.8,17.1,29.96,NNW,348,1.0,6.0,78,0.00,,,0.00,meteohub,2013-03-12 03:30:00,
2013-03-11 22:35:00,22.6,16.9,29.96,NNW,348,2.0,6.0,78,0.00,,,0.00,meteohub,2013-03-12 03:35:00,
2013-03-11 22:40:00,22.6,16.9,29.97,NNE,13,6.0,7.0,78,0.00,,,0.00,meteohub,2013-03-12 03:40:00,
2013-03-11 22:45:00,22.6,16.9,29.97,NNE,13,0.0,9.0,78,0.00,,,0.00,meteohub,2013-03-12 03:45:00,
2013-03-11 22:50:00,22.6,16.9,29.97,NNW,338,4.0,9.0,78,0.00,,,0.00,meteohub,2013-03-12 03:50:00,
2013-03-11 22:55:00,22.5,16.7,29.97,NNW,332,0.0,9.0,78,0.00,,,0.00,meteohub,2013-03-12 03:55:00,
2013-03-11 23:00:00,22.3,16.5,29.97,NW,326,5.0,9.0,78,0.00,,,0.00,meteohub,2013-03-12 04:00:00,
2013-03-11 23:05:00,21.9,16.3,29.97,NNW,333,0.0,10.0,79,0.00,,,0.00,meteohub,2013-03-12 04:05:00,
2013-03-11 23:10:00,21.7,16.2,29.97,North,0,2.0,10.0,79,0.00,,,0.00,meteohub,2013-03-12 04:10:00,
2013-03-11 23:15:00,21.6,16.0,29.97,North,0,4.0,7.0,79,0.00,,,0.00,meteohub,2013-03-12 04:15:00,
2013-03-11 23:20:00,21.4,15.8,29.98,NE,34,2.0,8.0,79,0.00,,,0.00,meteohub,2013-03-12 04:20:00,
2013-03-11 23:25:00,21.4,15.8,29.97,NNE,30,2.0,8.0,79,0.00,,,0.00,meteohub,2013-03-12 04:25:00,
2013-03-11 23:30:00,21.0,15.6,29.98,North,11,4.0,8.0,79,0.00,,,0.00,meteohub,2013-03-12 04:30:00,
2013-03-11 23:35:00,20.8,15.4,29.98,NNE,15,2.0,7.0,79,0.00,,,0.00,meteohub,2013-03-12 04:35:00,
2013-03-11 23:40:00,20.8,15.4,29.98,NNW,347,0.0,7.0,79,0.00,,,0.00,meteohub,2013-03-12 04:40:00,
2013-03-11 23:45:00,20.7,15.3,29.98,NNW,347,0.0,6.0,79,0.00,,,0.00,meteohub,2013-03-12 04:45:00,
2013-03-11 23:50:00,20.5,15.1,29.98,NNW,347,0.0,6.0,79,0.00,,,0.00,meteohub,2013-03-12 04:50:00,
2013-03-11 23:55:00,20.1,14.7,29.98,NNW,348,3.0,5.0,79,0.00,,,0.00,meteohub,2013-03-12 04:55:00,